Weather reports worldwide

Advertisment
Cherbourg, France (7024): temperature & dewpoint: 08.11.2018 13:00:00 - 14.11.2018 13:00:00 (CET)Cherbourg, France (7024): temperature 5cm: 08.11.2018 13:00:00 - 14.11.2018 13:00:00 (CET)Cherbourg, France (7024): temperature -20cm & temperature -100cm: 08.11.2018 13:00:00 - 14.11.2018 13:00:00 (CET)Cherbourg, France (7024): wind speed & gusts: 08.11.2018 13:00:00 - 14.11.2018 13:00:00 (CET)Cherbourg, France (7024): wind direction: 08.11.2018 13:00:00 - 14.11.2018 13:00:00 (CET)Cherbourg, France (7024): reduced air pressure: 08.11.2018 13:00:00 - 14.11.2018 13:00:00 (CET)Cherbourg, France (7024): visibility: 08.11.2018 13:00:00 - 14.11.2018 13:00:00 (CET)Cherbourg, France (7024): sunshine duration: 08.11.2018 13:00:00 - 14.11.2018 13:00:00 (CET)Cherbourg, France (7024): precipitation: 08.11.2018 13:00:00 - 14.11.2018 13:00:00 (CET)
Date & Time tt [°C] td [°C] tt 5cm [°C] tt -20cm [°C] tt -100cm [°C] ff [km/h] ff [kn] fx [km/h] fx [kn] dd ppp [hPa] vv [km] sd [min] rr [mm]
14.11.2018 13:00:00 14,4 7,7 16,0 10,4 11,8 16 9 30 16 S 1022,2 46 60 0,0
14.11.2018 12:00:00 13,2 7,8 14,9 10,4 11,7 19 10 34 18 S 1022,9 58 60 0,0
14.11.2018 11:00:00 11,6 7,9 10,6 10,4 11,8 20 11 35 19 S 1023,5 49 60 0,0
14.11.2018 10:00:00 9,1 7,0 6,9 10,4 11,8 20 11 29 16 S 1023,8 20 60 0,0
14.11.2018 09:00:00 7,1 6,4 5,4 10,4 11,8 18 10 24 13 S 1024,0 12 13 0,0
14.11.2018 08:00:00 6,5 5,6 5,7 10,4 11,8 15 8 23 13 SSE 1023,8 0,6 0 0,2
14.11.2018 07:00:00 7,1 6,2 6,1 10,5 11,8 14 8 27 14 S 1024,1 4,7 0 0,0
14.11.2018 06:00:00 7,6 6,7 7,4 10,5 11,8 18 10 26 14 S 1023,9 0,7 0 0,0
14.11.2018 05:00:00 7,9 7,0 6,4 10,5 11,8 15 8 24 13 S 1024,4 6 0 0,0
14.11.2018 04:00:00 7,4 6,3 6,4 10,6 11,8 14 8 23 13 S 1025,2 14 0 0,0
14.11.2018 03:00:00 7,6 6,5 6,7 10,6 11,8 14 8 23 12 S 1025,9 10 0 0,0
14.11.2018 02:00:00 8,0 7,1 6,5 10,6 11,8 14 7 21 11 S 1026,2 12 0 0,0
14.11.2018 01:00:00 7,7 6,8 6,2 10,7 11,8 12 7 18 10 S 1026,7 10 0 0,0
14.11.2018 00:00:00 7,6 6,5 5,4 10,7 11,8 13 7 19 10 S 1026,9 12 0 0,0
13.11.2018 23:00:00 7,7 6,0 6,2 10,8 11,8 11 6 18 10 S 1026,8 18 0 0,0
13.11.2018 22:00:00 8,2 6,3 6,9 10,8 11,8 13 7 18 10 S 1026,8 19 0 0,0
13.11.2018 21:00:00 8,1 6,7 6,2 10,8 11,8 11 6 15 8 S 1026,8 18 0 0,0
13.11.2018 20:00:00 8,0 6,8 5,8 10,9 11,8 10 5 13 7 S 1027,0 10 0 0,0
13.11.2018 19:00:00 8,3 6,8 6,3 10,9 11,8 11 6 14 7 S 1026,7 15 0 0,0
13.11.2018 18:00:00 9,4 6,8 7,7 10,9 11,8 9 5 18 10 S 1026,6 29 0 0,0
13.11.2018 17:00:00 11,0 7,3 10,5 10,8 11,8 13 7 27 15 SSW 1026,3 43 46 0,0
13.11.2018 16:00:00 12,3 7,4 12,6 10,7 11,8 21 12 39 21 SW 1026,0 36 53 0,0
13.11.2018 15:00:00 13,6 7,8 12,9 10,7 11,8 25 14 40 22 SW 1025,7 43 34 0,0
13.11.2018 14:00:00 13,0 7,7 12,7 10,6 11,8 26 14 37 20 SW 1025,5 45 38 0,0
13.11.2018 13:00:00 12,6 7,9 12,3 10,6 11,8 24 13 39 21 SW 1025,3 20 24 0,0
13.11.2018 12:00:00 12,2 8,7 11,5 10,6 11,8 19 11 31 17 WSW 1025,0 20 28 0,0
13.11.2018 11:00:00 12,7 8,0 13,1 10,6 11,8 22 12 34 19 WSW 1024,3 43 60 0,0
13.11.2018 10:00:00 11,6 7,1 10,1 10,6 11,8 22 12 36 19 WSW 1023,6 20 60 0,0
13.11.2018 09:00:00 10,1 7,5 8,2 10,7 11,8 20 11 28 15 SW 1022,9 30 12 0,0
13.11.2018 08:00:00 9,1 7,4 7,3 10,7 11,8 17 9 25 13 SW 1021,7 18 0 0,0
13.11.2018 07:00:00 8,3 6,9 6,9 10,7 11,8 15 8 27 15 SSW 1020,7 18 0 0,0
13.11.2018 06:00:00 8,5 6,8 7,6 10,8 11,8 16 9 36 19 SSW 1019,8 37 0 0,0
13.11.2018 05:00:00 9,1 6,9 7,0 10,8 11,8 24 13 50 27 SW 1018,8 41 0 1,6
13.11.2018 04:00:00 8,2 5,5 7,0 10,8 11,8 33 18 74 40 WSW 1018,6 2,4 0 7,1
13.11.2018 03:00:00 10,8 7,3 9,6 10,9 11,8 27 15 41 22 SW 1017,5 20 0 0,0
13.11.2018 02:00:00 10,5 7,0 9,2 10,9 11,8 22 12 39 21 SW 1016,8 35 0 0,0
13.11.2018 01:00:00 10,3 7,0 9,5 10,9 11,8 23 13 40 22 SW 1016,3 34 0 0,0
13.11.2018 00:00:00 10,5 7,4 9,7 10,9 11,8 26 14 42 23 SW 1015,7 34 0 0,0
12.11.2018 23:00:00 10,6 7,8 9,9 11,0 11,8 23 13 38 21 SW 1015,5 33 0 0,0
12.11.2018 22:00:00 11,0 7,9 9,8 11,0 11,8 20 11 37 20 SSW 1015,3 37 0 0,0
12.11.2018 21:00:00 10,6 8,0 9,2 11,0 11,8 16 9 28 15 SSW 1014,9 34 0 0,0
12.11.2018 20:00:00 10,3 7,9 9,0 11,0 11,8 16 9 27 15 SSW 1014,5 32 0 0,0
12.11.2018 19:00:00 10,1 7,9 9,2 11,0 11,8 16 9 26 14 SSW 1014,0 20 0 0,0
12.11.2018 18:00:00 10,5 8,1 9,7 11,0 11,8 16 9 36 19 S 1013,6 32 0 0,0
12.11.2018 17:00:00 11,5 7,4 11,2 11,0 11,8 19 10 40 22 S 1013,2 54 27 0,0
12.11.2018 16:00:00 12,4 8,3 12,5 10,9 11,8 24 13 39 21 SSW 1012,8 42 26 0,0
12.11.2018 15:00:00 13,4 8,7 13,6 10,8 11,8 19 11 43 23 SSW 1012,3 46 52 0,0
12.11.2018 14:00:00 13,2 8,3 12,7 10,8 11,8 29 15 43 23 SSW 1012,1 20 33 0,0
12.11.2018 13:00:00 12,4 8,5 12,2 10,8 11,8 21 12 39 21 SSW 1011,9 36 20 0,0
12.11.2018 12:00:00 12,7 9,3 12,3 10,7 11,8 20 11 34 18 SSW 1011,8 20 16 0,0
12.11.2018 11:00:00 11,5 9,6 10,8 10,7 11,8 19 10 34 18 SSW 1011,4 18 2 0,0
12.11.2018 10:00:00 10,9 9,5 - 10,7 11,8 22 12 31 17 SSW 1011,2 19 - -
12.11.2018 09:00:00 - - - - - - - - - - - - - -
12.11.2018 08:00:00 - - - - - - - - - - - - - -
12.11.2018 07:00:00 - - - - - - - - - - - - - -
12.11.2018 06:00:00 - - - - - - - - - - - - - -
12.11.2018 05:00:00 - - - - - - - - - - - - - -
12.11.2018 04:00:00 - - - - - - - - - - - - - -
12.11.2018 03:00:00 - - - - - - - - - - - - - -
12.11.2018 02:00:00 - - - - - - - - - - - - - -
12.11.2018 01:00:00 - - - - - - - - - - - - - -
12.11.2018 00:00:00 - - - - - - - - - - - - - -
11.11.2018 23:00:00 - - - - - - - - - - - - - -
11.11.2018 22:00:00 - - - - - - - - - - - - - -
11.11.2018 21:00:00 - - - - - - - - - - - - - -
11.11.2018 20:00:00 - - - - - - - - - - - - - -
11.11.2018 19:00:00 - - - - - - - - - - - - - -
11.11.2018 18:00:00 - - - - - - - - - - - - - -
11.11.2018 17:00:00 - - - - - - - - - - - - - -
11.11.2018 16:00:00 - - - - - - - - - - - - - -
11.11.2018 15:00:00 - - - - - - - - - - - - - -
11.11.2018 14:00:00 - - - - - - - - - - - - - -
11.11.2018 13:00:00 - - - - - - - - - - - - - -
11.11.2018 12:00:00 - - - - - - - - - - - - - -
11.11.2018 11:00:00 - - - - - - - - - - - - - -
11.11.2018 10:00:00 - - - - - - - - - - - - - -
11.11.2018 09:00:00 - - - - - - - - - - - - - -
11.11.2018 08:00:00 - - - - - - - - - - - - - -
11.11.2018 07:00:00 - - - - - - - - - - - - - -
11.11.2018 06:00:00 - - - - - - - - - - - - - -
11.11.2018 05:00:00 - - - - - - - - - - - - - -
11.11.2018 04:00:00 - - - - - - - - - - - - - -
11.11.2018 03:00:00 - - - - - - - - - - - - - -
11.11.2018 02:00:00 - - - - - - - - - - - - - -
11.11.2018 01:00:00 - - - - - - - - - - - - - -
11.11.2018 00:00:00 - - - - - - - - - - - - - -
10.11.2018 23:00:00 - - - - - - - - - - - - - -
10.11.2018 22:00:00 - - - - - - - - - - - - - -
10.11.2018 21:00:00 - - - - - - - - - - - - - -
10.11.2018 20:00:00 - - - - - - - - - - - - - -
10.11.2018 19:00:00 - - - - - - - - - - - - - -
10.11.2018 18:00:00 - - - - - - - - - - - - - -
10.11.2018 17:00:00 - - - - - - - - - - - - - -
10.11.2018 16:00:00 - - - - - - - - - - - - - -
10.11.2018 15:00:00 - - - - - - - - - - - - - -
10.11.2018 14:00:00 - - - - - - - - - - - - - -
10.11.2018 13:00:00 - - - - - - - - - - - - - -
10.11.2018 12:00:00 - - - - - - - - - - - - - -
10.11.2018 11:00:00 - - - - - - - - - - - - - -
10.11.2018 10:00:00 10,7 9,8 8,4 10,6 11,9 17 9 24 13 S 996,9 10 8 0,0
10.11.2018 09:00:00 9,1 7,7 8,5 10,7 11,9 13 7 26 14 SSW 996,6 12 0 0,0
10.11.2018 08:00:00 10,1 8,4 9,2 10,6 11,9 20 11 34 18 SSW 996,3 13 0 0,0
10.11.2018 07:00:00 10,7 8,8 10,2 10,6 11,9 16 8 32 17 SW 996,3 15 0 0,0
10.11.2018 06:00:00 10,8 9,4 9,9 10,6 11,9 20 11 33 18 S 995,8 12 0 0,0
10.11.2018 05:00:00 11,2 9,6 10,6 10,6 11,9 22 12 37 20 SSW 995,5 12 0 0,8
10.11.2018 04:00:00 11,8 10,2 10,8 10,6 11,9 26 14 40 22 SW 995,0 15 0 0,0
10.11.2018 03:00:00 11,1 10,0 10,4 10,6 11,9 19 10 34 18 SSW 994,7 50 0 0,4
10.11.2018 02:00:00 10,7 9,6 10,1 10,6 11,9 22 12 41 22 SSW 994,4 57 0 1,6
10.11.2018 01:00:00 10,6 9,4 10,0 10,6 11,9 34 18 61 33 S 994,6 6 0 2,0
10.11.2018 00:00:00 10,4 9,0 9,7 10,6 11,9 40 21 78 42 S 994,8 4,5 0 1,7
09.11.2018 23:00:00 10,3 8,6 9,6 10,6 11,9 48 26 78 42 S 994,5 7 0 1,0
09.11.2018 22:00:00 10,4 8,0 9,1 10,6 11,9 49 26 83 45 S 995,1 16 0 0,2
09.11.2018 21:00:00 9,9 7,5 8,8 10,6 11,9 44 24 74 40 S 996,3 18 0 0,8
09.11.2018 20:00:00 10,1 6,8 8,9 10,6 11,9 43 23 74 40 S 997,7 20 0 0,2
09.11.2018 19:00:00 9,9 7,1 8,7 10,6 11,9 42 23 69 37 SSE 998,5 15 0 1,2
09.11.2018 18:00:00 10,4 6,0 8,6 10,6 11,9 40 21 79 43 S 1000,5 11 0 0,8
09.11.2018 17:00:00 11,8 5,2 11,4 10,6 11,9 31 17 59 32 SSE 1001,3 60 0 0,0
09.11.2018 16:00:00 11,9 5,7 11,9 10,5 11,9 29 16 56 30 S 1002,8 60 0 0,0
09.11.2018 15:00:00 11,9 5,7 12,2 10,5 11,9 29 16 56 30 S 1004,2 59 7 0,0
09.11.2018 14:00:00 12,6 6,6 13,8 10,4 11,9 26 14 51 27 S 1005,4 60 53 0,0
09.11.2018 13:00:00 12,6 7,3 13,1 10,4 12,0 29 16 49 27 S 1006,9 56 44 0,0
09.11.2018 12:00:00 11,5 7,0 11,7 10,4 11,9 29 15 48 26 SSW 1007,3 20 39 0,0
09.11.2018 11:00:00 11,1 8,1 10,0 10,4 12,0 25 14 47 25 SSW 1007,3 49 18 0,2
09.11.2018 10:00:00 10,4 9,2 9,0 10,3 11,9 22 12 40 22 SSW 1007,4 10 0 0,2
09.11.2018 09:00:00 9,0 7,4 8,2 10,4 12,0 25 13 35 19 S 1007,2 19 0 0,0
09.11.2018 08:00:00 8,7 6,7 7,1 10,4 12,0 22 12 34 18 S 1007,3 19 0 0,0
09.11.2018 07:00:00 7,9 5,9 6,7 10,4 12,0 17 9 26 14 S 1007,8 36 0 0,0
09.11.2018 06:00:00 8,0 5,3 7,3 10,4 11,9 14 8 22 12 SSE 1007,8 44 0 0,0
09.11.2018 05:00:00 8,4 5,5 7,9 10,4 12,0 14 7 22 12 SSE 1008,2 47 0 0,0
09.11.2018 04:00:00 8,2 5,5 7,4 10,4 12,0 15 8 22 12 SSE 1008,7 44 0 0,0
09.11.2018 03:00:00 7,7 5,2 7,1 10,5 12,0 13 7 31 17 SSE 1009,0 38 0 0,0
09.11.2018 02:00:00 7,7 5,2 7,1 10,5 12,0 18 10 29 16 SSE 1009,0 38 0 0,0
09.11.2018 01:00:00 7,9 5,2 7,2 10,5 12,0 16 8 34 18 SSE 1009,7 37 0 0,0
09.11.2018 00:00:00 8,1 5,6 7,2 10,6 12,0 19 11 37 20 SSE 1010,3 35 0 0,0
08.11.2018 23:00:00 7,9 5,5 7,3 10,6 12,0 18 10 29 16 SE 1010,7 31 0 0,0
08.11.2018 22:00:00 8,3 5,6 7,4 10,6 12,0 20 11 33 18 SE 1011,2 33 0 0,0
08.11.2018 21:00:00 8,4 5,1 7,8 10,6 12,0 23 12 41 22 SE 1011,5 37 0 0,0
08.11.2018 20:00:00 8,9 4,5 7,8 10,6 12,0 22 12 38 20 SE 1012,0 51 0 0,0
08.11.2018 19:00:00 9,0 3,8 8,1 10,7 12,0 19 11 29 16 SE 1012,0 56 0 0,0
08.11.2018 18:00:00 9,4 4,6 8,5 10,6 12,0 19 11 34 18 SE 1011,9 53 0 0,0
08.11.2018 17:00:00 10,6 4,9 10,1 10,6 12,0 22 12 35 19 SE 1012,1 54 47 0,0
08.11.2018 16:00:00 11,4 5,3 11,8 10,6 12,0 19 10 40 22 SE 1012,6 57 45 0,0
08.11.2018 15:00:00 12,1 5,0 13,2 10,5 12,0 23 13 44 24 SSE 1013,3 44 46 0,0
08.11.2018 14:00:00 12,5 4,7 13,4 10,4 12,0 28 15 57 31 S 1014,3 20 51 0,0
08.11.2018 13:00:00 12,5 5,9 14,2 10,4 12,0 22 12 38 21 SSE 1014,9 49 58 0,0

tt = temperature
td = dewpoint
tt 5cm = temperature 5cm
tt -20cm = temperature -20cm
tt -100cm = temperature -100cm
ff = wind speed
fx = gusts
dd = wind direction
ppp = reduced air pressure
vv = visibility
sd = sunshine duration
rr = precipitation

Next stations